TJS-10

Last updated on Sat Jul 05 2025 00:02:48 GMT+0000 (Coordinated Universal Time)

1 58204U 23169A 25185.78839366 .00000015 00000+0 00000+0 0 9995 2 58204 1.6465 84.7865 0001080 130.3736 164.6768 1.00270746 6194
UTC large
Height (km)
Speed (km/s)
/
Latitude / Longitude
Inclination (degrees)
Orbital Period (minutes)
Azimuth
Elevation
Range (km)
Doppler Factor

Next 0 passes for location: London (51.5072 / 0.1276)

Sorry there are no passes over London.